Location: Doutre
(48.7697°N, 2.6708°E)
Time: 16:34:55
(UTC+00:00)

Daily predictions for brighter satellites

Satellite Brightness Start Highest point End
(mag) Time Altitude Azimuth Time Altitude Azimuth Time Altitude Azimuth
Cosmos 614 Rocket 4.2 17:09:08 10° SSW 17:14:22 80° WNW 17:19:36 10° NNE
DMSP B5D2-2 4.5 17:12:06 10° NNE 17:17:10 43° E 17:22:10 10° S
AQUARIUS 4.2 17:13:50 10° SSE 17:18:19 89° ENE 17:22:50 10° NNW
Cosmos 1607 4.2 17:12:46 10° SSW 17:18:38 50° ESE 17:24:35 10° NE
Meteor PRIRODA 3.5 17:15:55 10° SSE 17:19:25 66° ENE 17:22:57 10° N
Cosmos 1025 Rocket 3.2 17:16:35 10° SSW 17:20:51 75° W 17:25:09 10° N
YAOGAN 1 3.9 17:20:16 10° ESE 17:23:23 20° ENE 17:26:31 10° NNE
SL-4 R/B 1.6 17:21:06 10° WSW 17:24:33 86° SSE 17:28:12 10° ENE
Cosmos 2322 Rocket 3.8 17:22:05 10° SE 17:25:05 15° E 17:28:05 10° ENE
COBE Rocket 4.0 17:21:35 10° S 17:26:21 80° WSW 17:31:04 10° NNW
Cosmos 2227 Rocket 4.4 17:22:18 10° NW 17:27:15 31° WSW 17:32:09 10° SSW
Landsat 4 4.3 17:24:18 10° S 17:27:52 59° WSW 17:31:29 10° NNW
Cosmos 1975 Rocket 3.5 17:24:33 10° SSW 17:29:00 68° W 17:33:27 10° N
Cosmos 1892 4.1 17:28:33 10° SE 17:31:05 18° E 17:33:39 10° NE
ATLAS CENTAUR R/B 1.8 17:26:39 10° SSW 17:31:16 57° ESE 17:35:46 10° NE
Cosmos 1703 3.2 17:28:39 10° S 17:32:29 86° E 17:36:20 10° N
NOSS 2-1 (E) 3.9 17:28:11 10° NW 17:32:29 88° NE 17:38:31 10° SE
Cosmos 1536 Rocket 4.0 17:28:56 10° SSE 17:32:57 39° E 17:36:58 10° NNE
Cosmos 407 Rocket 3.9 17:28:30 10° S 17:33:20 42° ESE 17:38:09 10° NE
Cosmos 1340 Rocket 3.2 17:31:27 10° SSE 17:35:04 40° E 17:38:45 10° NNE
SL-16 R/B 3.2 17:32:29 10° SSE 17:37:07 26° ESE 17:41:46 10° NE
ARGOS 4.5 17:37:56 10° S 17:43:03 45° W 17:48:12 10° NNW
Cosmos 1606 Rocket 4.3 17:41:19 10° N 17:45:05 29° ENE 17:48:51 10° SE
Lacrosse 5 3.4 17:43:42 10° S 17:47:17 20° ESE 17:49:51 14° E
Cosmos 2369 3.9 17:43:09 10° SSW 17:48:49 76° WNW 17:54:32 10° NNE
BlueWalker 3 2.1 17:45:46 10° WSW 17:49:38 70° NNW 17:52:39 16° ENE
Cosmos 1140 Rocket 3.4 17:45:15 10° S 17:50:23 69° ESE 17:55:32 10° NNE
Cosmos 1655 Rocket 4.0 17:45:16 10° N 17:51:36 82° E 17:57:49 10° S
Cosmos 1825 3.5 17:49:06 10° SE 17:51:42 19° E 17:52:39 17° ENE
Cosmos 1408 2.7 17:49:07 10° SSE 17:52:21 43° E 17:55:38 10° NNE
NOAA 6 4.4 17:47:14 10° S 17:52:21 70° WSW 17:57:33 10° NNW
Cosmos 1980 Rocket 2.5 17:47:14 10° SW 17:52:53 72° WNW 17:58:36 10° NNE
Radarsat Rocket 4.3 17:47:58 10° SSE 17:53:57 78° WSW 18:00:36 10° NNW
ATLAS 5 CENTAUR R/B 3.5 17:52:39 10° WNW 17:55:30 19° NNW 17:58:40 10° NNE
COSMO-SKYMED 1 2.5 17:51:38 10° NNE 17:55:58 64° ESE 18:00:16 10° S
SL-08 R/B 3.8 17:53:06 10° N 17:58:01 67° WNW 18:02:55 10° SSW
Cosmos 1023 Rocket 4.4 17:53:34 10° SSW 17:58:44 83° ESE 18:03:53 10° NNE
USA 281 4.5 17:52:58 10° NNE 17:58:54 38° NW 18:04:50 10° WSW
Cosmos 2228 2.9 17:55:16 10° N 17:59:30 67° ENE 18:03:42 10° SSE
Cosmos 1697 Rocket 4.0 17:54:35 10° WSW 17:59:48 37° NW 18:05:03 10° NNE
MOS 1-B 4.5 18:01:28 10° SE 18:07:04 53° ENE 18:12:42 10° N
Cosmos 2263 Rocket 3.1 18:02:13 10° NW 18:07:37 51° WSW 18:12:58 10° S
CZ-4 R/B 2.1 18:07:18 10° SE 18:11:01 33° ENE 18:14:41 10° N
PSLV R/B 3.5 18:12:45 10° SSE 18:16:22 63° ENE 18:20:02 10° N
Cosmos 1328 3.8 18:13:19 10° S 18:17:18 84° W 18:21:18 10° N
Okean O Rocket 2.1 18:14:11 10° SE 18:18:13 38° ENE 18:22:19 10° N
Cosmos 1726 Rocket 3.7 18:14:26 10° N 18:18:36 46° ENE 18:22:45 10° SSE
Meteor 1-11 4.4 18:13:03 10° S 18:18:41 54° E 18:24:20 10° NNE
Lacrosse 5 rocket 2.0 18:17:57 10° NW 18:21:11 31° NNE 18:21:53 28° NE
Cosmos 724 4.3 18:15:18 10° SSW 18:21:13 85° SE 18:26:26 15° NE
Cosmos 1184 Rocket 4.2 18:19:41 10° NNW 18:21:49 28° W 18:23:55 10° SSW
Cosmos 468 Rocket 4.0 18:16:47 10° NNW 18:21:55 55° ENE 18:26:57 10° SE
ISS -3.3 18:18:37 10° WNW 18:21:56 58° SSW 18:23:39 25° SE
RESURS DK-1 3.0 18:21:52 10° NNW 18:25:36 32° NE 18:25:55 32° ENE
Cosmos 1954 Rocket 4.1 18:24:03 10° S 18:29:10 55° ESE 18:32:56 18° NE
Cosmos 1553 Rocket 4.1 18:26:07 10° SSE 18:31:51 46° E 18:37:41 10° NNE
CZ-4C R/B 3.8 18:30:06 10° N 18:34:00 59° WNW 18:37:40 10° SSW
IRIDIUM 104 4.4 18:29:34 10° N 18:34:41 52° E 18:39:46 10° SSE
Cosmos 2251 Rocket 4.5 18:29:51 10° SW 18:35:01 48° WNW 18:40:14 10° NNE
COSMOS 2455 3.8 18:29:17 10° WSW 18:35:02 44° NW 18:40:47 10° NNE
CZ-4B R/B 3.0 18:31:45 10° SSE 18:37:04 80° ENE 18:42:32 10° NNW
SL-08 R/B 4.5 18:32:15 10° N 18:38:26 60° ENE 18:44:38 10° SSE
USA 290 4.3 18:35:59 10° WSW 18:38:44 26° WNW 18:41:24 11° N
Cosmos 1844 Rocket 2.6 18:33:57 10° NNW 18:39:33 69° ENE 18:43:47 18° SE
IRIDIUM 114 4.2 18:38:39 10° N 18:43:51 63° E 18:49:01 10° SSE
Cosmos 1763 Rocket 3.5 18:39:06 10° NNW 18:44:20 83° WSW 18:49:27 10° SSE
Cosmos 1844 3.7 18:40:04 10° NNW 18:45:52 67° ENE 18:49:24 24° SE
Feng Yun 1-1 Rocket 4.1 18:40:21 10° SSE 18:45:53 65° ENE 18:51:19 10° N
Spot 1 4.3 18:47:34 44° SE 18:47:34 44° SE 18:50:51 10° S
Cosmos 2058 Rocket 3.1 18:43:44 10° N 18:48:03 53° ENE 18:48:17 53° E
Cosmos 2278 4.4 18:44:35 10° SW 18:50:09 54° NW 18:55:39 11° NNE
IRIDIUM 103 4.2 18:47:47 10° N 18:53:02 75° E 18:58:15 10° S
MINOTAUR 4 R/B 3.9 18:53:03 78° NNW 18:53:14 83° WNW 18:56:39 10° SSW
Cosmos 841 Rocket 3.6 18:48:52 10° NNW 18:54:02 51° ENE 18:54:41 48° E
ATLAS 2AS CENTAUR R/B 2.8 18:48:35 10° NW 18:55:37 73° SW 19:01:41 13° SSE
Cosmos 2333 Rocket 3.1 18:51:03 10° S 18:54:33 29° SE 18:54:33 29° SE
Cosmos 2360 Rocket 2.3 18:52:46 10° S 18:58:12 52° ESE 18:59:03 48° E
YAOGAN 1 3.3 18:54:54 10° S 18:59:06 52° W 19:03:21 10° NNW
Cosmos 2219 Rocket 4.2 18:55:56 10° SSE 18:56:23 12° SSE 18:56:23 12° SSE
Cosmos 2278 Rocket 3.8 18:58:22 10° N 19:01:28 20° NNE 19:01:28 20° NNE
SL-4 R/B 2.4 19:00:31 10° W 19:03:34 49° NNW 19:03:34 49° NNW
S3M 4.1 18:59:13 10° SSE 19:05:21 51° E 19:11:30 10° NNE
Cosmos 1892 4.1 19:02:43 10° SW 19:06:12 37° WNW 19:09:43 10° N
Cosmos 540 Rocket 3.4 19:02:07 10° NNW 19:07:18 81° WSW 19:10:11 27° SSE
Cosmos 2322 Rocket 2.0 19:02:39 10° SSW 19:08:16 87° ESE 19:10:37 37° NNE
ATLAS CENTAUR R/B 3.2 19:05:59 10° W 19:10:05 30° NW 19:12:01 22° N
Cosmos 676 Rocket 4.1 19:05:39 10° SSW 19:10:57 79° WNW 19:13:41 29° NNE
IRIDIUM 106 4.4 19:06:06 10° N 19:11:20 79° W 19:16:33 10° S
Cosmos 1461 3.8 19:12:17 10° SSW 19:15:09 41° SSW 19:15:09 41° SSW
SL-16 R/B 2.7 19:15:16 10° SW 19:20:51 58° WNW 19:24:12 24° NNE
Cosmos 1825 3.7 19:23:13 10° SW 19:26:38 35° WNW 19:27:13 32° NW
Gblst 52 Del rocket 3.9 19:22:51 10° WSW 19:28:25 88° NNW 19:28:33 86° NE
BlueWalker 3 3.5 19:24:56 10° WNW 19:27:27 32° NW 19:27:27 32° NW
Lacrosse 5 1.9 19:24:31 10° SW 19:29:05 71° SW 19:29:05 71° SW
CSL-04 Debris 4.1 19:29:17 68° S 19:30:02 87° WSW 19:35:29 10° NNW
Cosmos 1892 Rocket 4.5 19:29:55 10° SSW 19:34:11 47° WNW 19:35:28 36° NNW
CSL-04 Rocket 3.6 19:39:31 76° NW 19:39:31 76° NW 19:44:32 10° NNW
ATLAS 5 CENTAUR R/B 4.1 19:39:28 10° NNW 19:40:52 13° N 19:40:52 13° N
CZ-4 R/B 3.5 19:42:24 10° SSW 19:45:55 26° W 19:49:25 10° NW
BREEZE-M DEB (TANK) 3.6 19:35:27 10° WSW 19:45:22 58° SSW 19:45:22 58° SSW
Cosmos 1745 Rocket 4.3 19:45:13 10° NNW 19:51:25 64° W 19:55:06 25° SSW
Okean O Rocket 3.7 19:50:59 10° SSW 19:54:40 26° W 19:58:23 10° NW
Cosmos 1943 Rocket 4.4 19:52:39 10° N 19:53:56 14° N 19:53:56 14° N
BREEZE-M DEB (TANK) 4.0 19:53:05 10° W 19:57:22 60° S 19:57:31 60° S
Lacrosse 5 rocket 4.0 19:56:41 10° WNW 19:57:18 14° WNW 19:57:18 14° WNW
Cosmos 2333 Rocket 4.2 20:34:48 10° SW 20:36:39 21° WSW 20:36:39 21° WSW
Cosmos 2360 Rocket 4.0 20:37:26 10° WSW 20:40:54 28° WNW 20:40:54 28° WNW
Cosmos 2278 Rocket 4.4 20:41:48 10° NNW 20:43:19 19° NNW 20:43:19 19° NNW
Cosmos 2322 Rocket 4.3 20:48:46 10° W 20:52:29 22° NW 20:52:29 22° NW
